West Memphis, AR

5:05 AM CDT on April 30, 2017 (GMT -0500)
West Memphis Municipal

Weather History for KAWM - January, 2012

Change the Weather History Date:

Wednesday, January 11, 2012

  Actual Average Record
Temperature  
Mean Temperature 46 °F -  
Max Temperature 50 °F 44 °F 71 °F (2017)
Min Temperature 43 °F 26 °F 0 °F (1982)
Degree Days  
Heating Degree Days 18    
Moisture  
Dew Point 44 °F    
Average Humidity 94    
Maximum Humidity 100    
Minimum Humidity 83    
Precipitation  
Precipitation 0.01 in - - ()
Sea Level Pressure  
Sea Level Pressure 29.63 in    
Wind  
Wind Speed 4 mph (WSW)    
Max Wind Speed 8 mph    
Max Gust Speed -    
Visibility 4 miles    
Events Fog    
Averages and records for this station are not official NWS values.
T = Trace of Precipitation, MM = Missing Value Source: NWS Daily Summary

Daily Weather History Graph

Daily Weather History Graph

Search for Another Location

Airport or City:

Trip Planner

Search our weather history database for the weather conditions in past years. The results will help you decide how hot, cold, wet, or windy it might be!

Date:

Astronomy

Jan. 11, 2012 Rise Set
Actual Time 7:09 AM CST 5:08 PM CST
Civil Twilight 6:41 AM CST 5:35 PM CST
Nautical Twilight 6:10 AM CST 6:07 PM CST
Astronomical Twilight 5:39 AM CST 6:37 PM CST
Moon 7:58 PM CST (1/11) 8:28 AM CST (1/11)
Length of Visible Light 10h 53m
Length of Day
9h 58m
Waning Gibbous, 93% of the Moon is Illuminated
Jan 11
Waning Gibbous
Jan 16
Last Quarter
Jan 23
New
Jan 30
First Quarter
Feb 7
Full

Hourly Weather History & Observations

Time (CST) Temp. Windchill Dew Point Humidity Pressure Visibility Wind Dir Wind Speed Gust Speed Precip Events Conditions
12:53 AM 48.0 °F - 46.9 °F 96% 29.61 in 4.0 mi North 3.5 mph - 0.01 in   Overcast
1:29 AM 48.2 °F - 46.4 °F 93% 29.60 in 2.5 mi Calm Calm - N/A   Overcast
1:35 AM 48.2 °F - 46.4 °F 93% 29.60 in 0.8 mi Calm Calm - N/A   Overcast
1:43 AM 48.2 °F - 46.4 °F 93% 29.60 in 0.5 mi Calm Calm - N/A Fog Fog
1:50 AM 48.2 °F - 46.4 °F 93% 29.59 in 0.2 mi SE 5.8 mph - N/A Fog Fog
1:53 AM 48.0 °F - 46.9 °F 96% 29.59 in 0.2 mi SE 5.8 mph - N/A Fog Fog
2:38 AM 48.2 °F - 46.4 °F 93% 29.59 in 0.2 mi West 6.9 mph - N/A Fog Fog
2:45 AM 46.4 °F 42.4 °F 46.4 °F 100% 29.59 in 0.5 mi West 8.1 mph - N/A Fog Fog
2:53 AM 46.9 °F - 46.0 °F 97% 29.59 in 0.5 mi West 8.1 mph - N/A Fog Fog
3:46 AM 44.6 °F 40.7 °F 44.6 °F 100% 29.60 in 1.0 mi NW 6.9 mph - N/A   Mist
3:53 AM 45.0 °F 41.2 °F 45.0 °F 100% 29.60 in 1.2 mi NW 6.9 mph - N/A   Overcast
4:38 AM 44.6 °F - 44.6 °F 100% 29.59 in 0.8 mi Calm Calm - N/A   Mist
4:53 AM 45.0 °F 43.5 °F 45.0 °F 100% 29.58 in 0.8 mi NW 3.5 mph - N/A   Mist
5:03 AM 44.6 °F 42.2 °F 44.6 °F 100% 29.59 in 1.8 mi NW 4.6 mph - N/A   Overcast
5:11 AM 44.6 °F 42.2 °F 44.6 °F 100% 29.59 in 2.0 mi NW 4.6 mph - N/A   Overcast
5:29 AM 44.6 °F 43.1 °F 44.6 °F 100% 29.59 in 4.0 mi NNW 3.5 mph - N/A   Overcast
5:53 AM 45.0 °F 42.6 °F 44.1 °F 97% 29.60 in 3.0 mi NW 4.6 mph - N/A   Overcast
6:02 AM 44.6 °F 42.2 °F 44.6 °F 100% 29.60 in 2.0 mi NW 4.6 mph - N/A   Overcast
6:11 AM 44.6 °F 41.4 °F 44.6 °F 100% 29.60 in 1.0 mi West 5.8 mph - N/A   Overcast
6:20 AM 44.6 °F 41.4 °F 44.6 °F 100% 29.61 in 0.8 mi West 5.8 mph - N/A   Mist
6:53 AM 44.1 °F 41.5 °F 44.1 °F 100% 29.61 in 0.8 mi West 4.6 mph - N/A   Mist
7:09 AM 44.6 °F 40.7 °F 42.8 °F 93% 29.62 in 1.0 mi Variable 6.9 mph - N/A   Mist
7:44 AM 44.6 °F 40.7 °F 42.8 °F 93% 29.62 in 0.5 mi West 6.9 mph - N/A Fog Fog
7:53 AM 43.0 °F 38.8 °F 43.0 °F 100% 29.62 in 0.5 mi West 6.9 mph - N/A Fog Fog
8:07 AM 44.6 °F 40.7 °F 42.8 °F 93% 29.63 in 2.0 mi West 6.9 mph - N/A   Overcast
8:53 AM 44.1 °F 41.5 °F 43.0 °F 96% 29.64 in 8.0 mi Variable 4.6 mph - N/A   Overcast
9:08 AM 44.6 °F 43.1 °F 42.8 °F 93% 29.65 in 9.0 mi WSW 3.5 mph - N/A   Overcast
9:53 AM 44.1 °F 40.1 °F 43.0 °F 96% 29.67 in 10.0 mi West 6.9 mph - N/A   Overcast
10:42 AM 44.6 °F 42.2 °F 42.8 °F 93% 29.67 in 2.0 mi WSW 4.6 mph - N/A   Overcast
10:53 AM 45.0 °F 41.8 °F 43.0 °F 93% 29.67 in 3.0 mi West 5.8 mph - N/A   Overcast
11:20 AM 44.6 °F 40.7 °F 44.6 °F 100% 29.67 in 2.0 mi West 6.9 mph - N/A   Overcast
11:28 AM 44.6 °F 41.4 °F 44.6 °F 100% 29.66 in 1.8 mi West 5.8 mph - N/A   Overcast
11:46 AM 44.6 °F 42.2 °F 44.6 °F 100% 29.65 in 3.0 mi West 4.6 mph - N/A   Overcast
11:53 AM 45.0 °F 41.2 °F 44.1 °F 97% 29.65 in 2.5 mi West 6.9 mph - N/A   Overcast
12:53 PM 46.0 °F 43.9 °F 43.0 °F 89% 29.63 in 9.0 mi WSW 4.6 mph - N/A   Overcast
1:48 PM 46.4 °F 45.2 °F 42.8 °F 87% 29.63 in 10.0 mi SW 3.5 mph - N/A   Overcast
1:53 PM 46.0 °F 43.1 °F 43.0 °F 89% 29.63 in 10.0 mi WSW 5.8 mph - N/A   Overcast
2:15 PM 46.4 °F 44.3 °F 42.8 °F 87% 29.63 in 10.0 mi SW 4.6 mph - N/A   Overcast
2:53 PM 48.0 °F - 44.1 °F 86% 29.62 in 10.0 mi SSW 5.8 mph - N/A   Overcast
3:21 PM 48.2 °F - 44.6 °F 87% 29.63 in 10.0 mi SW 5.8 mph - N/A   Overcast
3:53 PM 48.9 °F - 45.0 °F 86% 29.64 in 10.0 mi SW 4.6 mph - N/A   Overcast
4:53 PM 50.0 °F - 45.0 °F 83% 29.64 in 10.0 mi SSW 3.5 mph - N/A   Overcast
5:53 PM 45.0 °F 41.8 °F 43.0 °F 93% 29.65 in 10.0 mi SSE 5.8 mph - N/A   Clear
6:53 PM 45.0 °F 43.5 °F 42.1 °F 90% 29.67 in 10.0 mi SSW 3.5 mph - N/A   Clear
7:53 PM 46.9 °F - 42.1 °F 83% 29.68 in 10.0 mi SSW 5.8 mph - N/A   Clear
8:53 PM 46.9 °F - 43.0 °F 86% 29.69 in 10.0 mi SW 8.1 mph - N/A   Scattered Clouds
9:53 PM 46.0 °F 42.5 °F 43.0 °F 89% 29.70 in 10.0 mi SW 6.9 mph - N/A   Clear
10:53 PM 45.0 °F 41.2 °F 42.1 °F 90% 29.69 in 10.0 mi South 6.9 mph - N/A   Mostly Cloudy
11:53 PM 44.1 °F 39.5 °F 42.1 °F 93% 29.69 in 10.0 mi SSW 8.1 mph - N/A   Clear